Home   Weather   Korschenbroich   Past weeks

Flag for Germany Past Weather in Korschenbroich, North Rhine-Westphalia, Germany — Yesterday and Last 2 Weeks

Now
66 °F

Passing clouds.


Feels Like: 66 °F
Forecast: 64 / 72 °F
Wind: 12 mph from North

Location: Monchengladbach Airport

Current Time: Jun 24, 2017 at 10:46:31 am

Latest Report: Jun 24, 2017 at 9:50 am


Visibility: N/A

Pressure: 30.01 "Hg

Humidity: 64%

Dew Point: 54 °F

Location of KorschenbroichLocation

Past Weather in Korschenbroich — Graph

°F

Korschenbroich Temperature Yesterday

Maximum temperature yesterday: 77 °F (at 3:20 pm)
Minimum temperature yesterday: 66 °F (at 8:20 am)
Average temperature yesterday: 73 °F

High & Low Weather Summary for the Past Weeks

 TemperatureHumidityPressure
High93 °F (Jun 22, 3:20 pm)100% (Jun 9, 12:50 pm)30.30 "Hg (Jun 9, 12:50 pm)
Low59 °F (Jun 9, 11:20 am)27% (Jun 19, 5:20 pm)29.74 "Hg (Jun 22, 5:20 pm)
Average74 °F54%30.05 "Hg
* Reported Jun 9 9:20 am — Jun 24 9:20 am, Korschenbroich. Weather by CustomWeather, © 2017

Note: Actual official high and low records may vary slightly from our data, if they occured in-between our weather recording intervals... More about our weather records

Advertising

Korschenbroich Weather History for the Previous 24 Hours

Scroll right to see more
 ConditionsComfort  
Time TempWeatherWind HumidityBarometerVisibility
9:20 am
Sat, Jun 24
64 °FPassing clouds.10 mph68%30.01 "HgN/A
8:50 am63 °FScattered clouds.12 mph73%30.01 "HgN/A
8:20 am63 °FScattered clouds.9 mph73%29.98 "HgN/A
7:50 am61 °FPartly sunny.10 mph72%30.01 "HgN/A
8:20 pm
Fri, Jun 23
75 °FPassing clouds.8 mph47%29.98 "HgN/A
7:50 pm77 °FPassing clouds.10 mph44%29.98 "HgN/A
7:20 pm77 °FPassing clouds.10 mph47%29.98 "HgN/A
6:50 pm75 °FPassing clouds.8 mph47%29.98 "HgN/A
6:20 pm75 °FPassing clouds.9 mph50%29.98 "HgN/A
5:50 pm77 °FPassing clouds.10 mph44%29.98 "HgN/A
5:20 pm77 °FPassing clouds.9 mph47%29.98 "HgN/A
4:50 pm77 °FPassing clouds.10 mph47%29.98 "HgN/A
4:20 pm77 °FPassing clouds.10 mph47%29.98 "HgN/A
3:50 pm75 °FPassing clouds.12 mph50%29.98 "HgN/A
3:20 pm77 °FPassing clouds.12 mph51%30.01 "HgN/A
2:50 pm75 °FPassing clouds.9 mph54%29.98 "HgN/A
2:20 pm73 °FPassing clouds.8 mph57%30.01 "HgN/A
1:50 pm73 °FPassing clouds.10 mph57%30.01 "HgN/A
1:20 pm73 °FPassing clouds.8 mph57%30.01 "HgN/A
12:50 pm72 °FScattered clouds.8 mph65%30.01 "HgN/A
12:20 pm72 °FScattered clouds.7 mph65%30.01 "HgN/A
11:50 am72 °FScattered clouds.8 mph65%30.01 "HgN/A
11:20 am70 °FScattered clouds.6 mph69%30.01 "HgN/A
10:50 am70 °FScattered clouds.5 mph69%29.98 "HgN/A
10:20 am70 °FPassing clouds.7 mph69%29.98 "HgN/A
Weather by CustomWeather, © 2017

See weather overviewHow to use our weather pages